This is the latest recevied weather packets stored in our database for station/object VK7TM-1. If no packets are shown the sender has not sent any weather packets the latest 10 day(s).
| Time | Temp. | Humidity | Pressure | Rain* | Wind** | Luminosity | Snow |
|---|---|---|---|---|---|---|---|
| 1778389812 | 15° C | 79% | 1032.4 hPa | 0 mm | - | 97 W/m² | - |
| 1778389522 | 15° C | 78% | 1032.5 hPa | 0 mm | - | 109 W/m² | - |
| 1778389232 | 15° C | 78% | 1032.4 hPa | 0 mm | - | 128 W/m² | - |
| 1778388942 | 15° C | 79% | 1032.2 hPa | 0 mm | - | 158 W/m² | - |
| 1778388652 | 15° C | 78% | 1032.2 hPa | 0 mm | - | 184 W/m² | - |
| 1778388362 | 15° C | 77% | 1032.1 hPa | 0 mm | - | 205 W/m² | - |
| 1778388072 | 15° C | 76% | 1032.1 hPa | 0 mm | - | 223 W/m² | - |
| 1778387782 | 15° C | 76% | 1032.1 hPa | 0 mm | - | 241 W/m² | - |
| 1778387492 | 15° C | 74% | 1032.1 hPa | 0 mm | - | 254 W/m² | - |
| 1778387202 | 15° C | 75% | 1032 hPa | 0 mm | - | 266 W/m² | - |
| 1778386912 | 15° C | 74% | 1031.9 hPa | 0 mm | - | 279 W/m² | - |
| 1778386622 | 15° C | 75% | 1031.9 hPa | 0 mm | - | 288 W/m² | - |
| 1778386332 | 15° C | 77% | 1032.1 hPa | 0 mm | - | 297 W/m² | - |
| 1778386042 | 15° C | 77% | 1032 hPa | 0 mm | - | 306 W/m² | - |
| 1778385752 | 15.56° C | 75% | 1032.1 hPa | 0 mm | - | 311 W/m² | - |
| 1778385462 | 15.56° C | 74% | 1031.9 hPa | 0 mm | - | 319 W/m² | - |
| 1778385172 | 15.56° C | 74% | 1032 hPa | 0 mm | - | 327 W/m² | - |
| 1778384882 | 15.56° C | 72% | 1032 hPa | 0 mm | - | 334 W/m² | - |
| 1778384592 | 15.56° C | 72% | 1031.9 hPa | 0 mm | - | 344 W/m² | - |
| 1778384302 | 16.11° C | 71% | 1031.9 hPa | 0 mm | - | 351 W/m² | - |
| 1778384012 | 16.11° C | 71% | 1031.9 hPa | 0 mm | - | 359 W/m² | - |
| 1778383722 | 15.56° C | 69% | 1031.8 hPa | 0 mm | - | 365 W/m² | - |
| 1778383432 | 15.56° C | 68% | 1031.8 hPa | 0 mm | - | 369 W/m² | - |
| 1778383142 | 15.56° C | 70% | 1031.9 hPa | 0 mm | - | 373 W/m² | - |
| 1778382852 | 16.11° C | 69% | 1031.8 hPa | 0 mm | - | 381 W/m² | - |
* Rain latest hour (hover to see other rain measurements)
** Current wind speed in m/s (hover to see current wind gust speed)